User: anonymous   Login
Location: Bayshore Village Mobile Home Park
(26.6945°N, 81.8642°W)
Time: 20:29:21
(UTC+00:00)
Language:

deb Delta - Orbit

View from above orbital plane
View from above orbital plane
View from above satellite
View from above satellite

Ground track
Ground track

The orbit data is extracted from the following two-line orbital elements,

1 19365U 75004HQ  22024.25373630  .00000482  00000-0  18667-3 0  9994
2 19365  97.7054 127.4880 0145347 142.4467 218.6976 14.27947917750215
Epoch (UTC): 24 January 2022 06:05:22
Eccentricity: 0.0145347
inclination: 97.7054°
perigee height: 694 km
apogee height: 903 km
right ascension of ascending node: 127.4880°
argument of perigee: 142.4467°
revolutions per day: 14.27947917
mean anomaly at epoch: 218.6976°
orbit number at epoch: 75021

The dashed part of the orbit path shows where the satellite is in the earth's shadow,  

DLR